When you browse on this site, cookies collect data to enhance your experience and personalize the content and advertising you see.
Visit our Privacy Policy to learn more. By continuing to use the site, you agree to this use of cookies and data.
  • In Österreich
  • Länderverzeichnis
  • Für 7 Tage
  • Wassertemperatur
  • Wetterkarte
  • News
  • Widgets
  • user-avatar
    Anmelden

    Stündliche Wetter Zacualtipán

    Heute, 22 Januar, Mittwoch

    Zeit Temperatur Niederschläge Wind Luftdruck Luftfeuchtigkeit
    00:00 +9°C° 0 mm 1 m/S 618 mmHg 92%
    01:00 +8°C° 0 mm 1 m/S 617 mmHg 92%
    02:00 +8°C° 0 mm 1 m/S 616 mmHg 93%
    03:00 +7°C° 0 mm 1 m/S 616 mmHg 91%
    04:00 +7°C° 0 mm 1 m/S 616 mmHg 90%
    05:00 +7°C° 0 mm 1 m/S 615 mmHg 89%
    06:00 +9°C° 0 mm 1 m/S 616 mmHg 84%
    07:00 +11°C° 0 mm 1 m/S 617 mmHg 79%
    08:00 +13°C° 0 mm 1 m/S 618 mmHg 73%
    09:00 +15°C° 0 mm 1 m/S 618 mmHg 65%
    10:00 +17°C° 0 mm 2 m/S 619 mmHg 58%
    11:00 +20°C° 0 mm 2 m/S 619 mmHg 50%
    12:00 +20°C° 0 mm 2 m/S 618 mmHg 51%
    13:00 +20°C° 0 mm 3 m/S 618 mmHg 52%
    14:00 +20°C° 0 mm 3 m/S 617 mmHg 52%
    15:00 +19°C° 0 mm 2 m/S 616 mmHg 63%
    16:00 +17°C° 0 mm 2 m/S 615 mmHg 74%
    17:00 +15°C° 0 mm 1 m/S 615 mmHg 85%
    18:00 +14°C° 0 mm 1 m/S 615 mmHg 88%
    19:00 +13°C° 0 mm 1 m/S 615 mmHg 91%
    20:00 +12°C° 0 mm 1 m/S 616 mmHg 95%
    21:00 +12°C° 0 mm 1 m/S 616 mmHg 95%
    22:00 +12°C° 0 mm 1 m/S 616 mmHg 96%
    23:00 +12°C° 0 mm 1 m/S 616 mmHg 96%

    Morgen, 23 Januar, Donnerstag

    Zeit Temperatur Niederschläge Wind Luftdruck Luftfeuchtigkeit
    00:00 +12°C° 0 mm 1 m/S 616 mmHg 95%
    01:00 +12°C° 0 mm 1 m/S 615 mmHg 94%
    02:00 +12°C° 0 mm 1 m/S 615 mmHg 93%
    03:00 +12°C° 0 mm 1 m/S 615 mmHg 92%
    04:00 +11°C° 0 mm 1 m/S 614 mmHg 91%
    05:00 +10°C° 0 mm 2 m/S 614 mmHg 90%
    06:00 +13°C° 0 mm 1 m/S 615 mmHg 85%
    07:00 +14°C° 0 mm 1 m/S 616 mmHg 79%
    08:00 +15°C° 0 mm 1 m/S 617 mmHg 74%
    09:00 +18°C° 0.1 mm 1 m/S 618 mmHg 68%
    10:00 +18°C° 0.1 mm 2 m/S 618 mmHg 62%
    11:00 +19°C° 0.1 mm 2 m/S 618 mmHg 56%
    12:00 +19°C° 0.4 mm 2 m/S 617 mmHg 60%
    13:00 +18°C° 0.4 mm 2 m/S 616 mmHg 65%
    14:00 +17°C° 0.4 mm 2 m/S 615 mmHg 69%
    15:00 +16°C° 0.4 mm 2 m/S 615 mmHg 75%
    16:00 +15°C° 0.4 mm 1 m/S 615 mmHg 81%
    17:00 +14°C° 0.4 mm 1 m/S 615 mmHg 86%
    18:00 +14°C° 0.2 mm 1 m/S 615 mmHg 87%
    19:00 +13°C° 0.2 mm 1 m/S 616 mmHg 88%
    20:00 +13°C° 0.2 mm 1 m/S 616 mmHg 89%
    21:00 +12°C° 0 mm 1 m/S 616 mmHg 90%
    22:00 +11°C° 0 mm 0 m/S 616 mmHg 90%
    23:00 +10°C° 0 mm 0 m/S 616 mmHg 91%

    übermorgen, 24 Januar, Freitag

    Zeit Temperatur Niederschläge Wind Luftdruck Luftfeuchtigkeit
    00:00 +10°C° 0 mm 0 m/S 615 mmHg 92%
    01:00 +10°C° 0 mm 0 m/S 615 mmHg 93%
    02:00 +10°C° 0 mm 0 m/S 615 mmHg 93%
    03:00 +10°C° 0 mm 0 m/S 615 mmHg 94%
    04:00 +10°C° 0 mm 0 m/S 615 mmHg 94%
    05:00 +11°C° 0 mm 1 m/S 616 mmHg 95%
    06:00 +12°C° 0 mm 1 m/S 616 mmHg 94%
    07:00 +12°C° 0 mm 1 m/S 617 mmHg 92%
    08:00 +12°C° 0 mm 1 m/S 618 mmHg 91%
    09:00 +13°C° 0.1 mm 1 m/S 618 mmHg 89%
    10:00 +14°C° 0.1 mm 1 m/S 618 mmHg 86%
    11:00 +14°C° 0.1 mm 2 m/S 618 mmHg 84%
    12:00 +14°C° 0.2 mm 2 m/S 617 mmHg 84%
    13:00 +14°C° 0.2 mm 2 m/S 617 mmHg 85%
    14:00 +14°C° 0.2 mm 2 m/S 616 mmHg 86%
    15:00 +14°C° 0.1 mm 2 m/S 616 mmHg 89%
    16:00 +13°C° 0.1 mm 1 m/S 616 mmHg 91%
    17:00 +13°C° 0.1 mm 1 m/S 616 mmHg 94%
    18:00 +13°C° 0.1 mm 1 m/S 616 mmHg 95%
    19:00 +12°C° 0.1 mm 1 m/S 616 mmHg 96%
    20:00 +11°C° 0.1 mm 0 m/S 617 mmHg 97%
    21:00 +11°C° 0 mm 0 m/S 617 mmHg 97%
    22:00 +11°C° 0 mm 0 m/S 617 mmHg 97%
    23:00 +11°C° 0 mm 0 m/S 617 mmHg 97%

    25 Januar, Samstag

    Zeit Temperatur Niederschläge Wind Luftdruck Luftfeuchtigkeit
    00:00 +11°C° 0 mm 0 m/S 616 mmHg 96%
    01:00 +11°C° 0 mm 0 m/S 616 mmHg 96%
    02:00 +11°C° 0 mm 0 m/S 616 mmHg 96%
    03:00 +11°C° 0 mm 0 m/S 616 mmHg 96%
    04:00 +10°C° 0 mm 0 m/S 616 mmHg 96%
    05:00 +11°C° 0 mm 1 m/S 615 mmHg 96%
    06:00 +11°C° 0 mm 0 m/S 616 mmHg 91%
    07:00 +12°C° 0 mm 0 m/S 617 mmHg 86%
    08:00 +14°C° 0 mm 0 m/S 618 mmHg 81%
    09:00 +16°C° 0 mm 1 m/S 618 mmHg 74%
    10:00 +19°C° 0 mm 1 m/S 619 mmHg 67%
    11:00 +20°C° 0 mm 1 m/S 619 mmHg 60%
    12:00 +19°C° 0 mm 2 m/S 618 mmHg 63%
    13:00 +19°C° 0 mm 2 m/S 618 mmHg 66%
    14:00 +19°C° 0 mm 2 m/S 617 mmHg 69%
    15:00 +17°C° 0.1 mm 2 m/S 616 mmHg 76%
    16:00 +16°C° 0.1 mm 1 m/S 616 mmHg 83%
    17:00 +15°C° 0.1 mm 1 m/S 615 mmHg 91%
    18:00 +14°C° 0 mm 1 m/S 616 mmHg 92%
    19:00 +13°C° 0 mm 0 m/S 616 mmHg 94%
    20:00 +12°C° 0 mm 0 m/S 616 mmHg 95%
    21:00 +12°C° 0 mm 0 m/S 616 mmHg 95%
    22:00 +11°C° 0 mm 0 m/S 616 mmHg 95%
    23:00 +11°C° 0 mm 0 m/S 616 mmHg 94%

    26 Januar, Sonntag

    Zeit Temperatur Niederschläge Wind Luftdruck Luftfeuchtigkeit
    00:00 +11°C° 0 mm 0 m/S 615 mmHg 94%
    01:00 +11°C° 0 mm 0 m/S 615 mmHg 94%
    02:00 +10°C° 0 mm 0 m/S 615 mmHg 93%
    03:00 +10°C° 0 mm 0 m/S 615 mmHg 94%
    04:00 +10°C° 0 mm 0 m/S 615 mmHg 94%
    05:00 +10°C° 0 mm 0 m/S 615 mmHg 94%
    06:00 +11°C° 0 mm 0 m/S 616 mmHg 90%
    07:00 +12°C° 0 mm 0 m/S 617 mmHg 87%
    08:00 +13°C° 0 mm 0 m/S 617 mmHg 83%
    09:00 +16°C° 0 mm 1 m/S 618 mmHg 77%
    10:00 +17°C° 0 mm 2 m/S 618 mmHg 71%
    11:00 +19°C° 0 mm 2 m/S 618 mmHg 65%
    12:00 +18°C° 0.4 mm 2 m/S 618 mmHg 69%
    13:00 +18°C° 0.4 mm 2 m/S 617 mmHg 73%
    14:00 +17°C° 0.4 mm 3 m/S 616 mmHg 76%
    15:00 +16°C° 0.9 mm 2 m/S 616 mmHg 82%
    16:00 +15°C° 0.9 mm 2 m/S 616 mmHg 87%
    17:00 +14°C° 0.9 mm 2 m/S 616 mmHg 93%
    18:00 +14°C° 0.7 mm 2 m/S 616 mmHg 94%
    19:00 +13°C° 0.7 mm 1 m/S 617 mmHg 96%
    20:00 +13°C° 0.7 mm 1 m/S 617 mmHg 97%
    21:00 +12°C° 0.7 mm 1 m/S 617 mmHg 97%
    22:00 +12°C° 0.7 mm 1 m/S 617 mmHg 97%
    23:00 +12°C° 0.7 mm 1 m/S 617 mmHg 97%

    27 Januar, Montag

    Zeit Temperatur Niederschläge Wind Luftdruck Luftfeuchtigkeit
    00:00 +12°C° 0.2 mm 1 m/S 617 mmHg 97%
    01:00 +11°C° 0.2 mm 1 m/S 617 mmHg 97%
    02:00 +10°C° 0.2 mm 0 m/S 616 mmHg 97%
    03:00 +10°C° 0 mm 0 m/S 616 mmHg 97%
    04:00 +10°C° 0 mm 0 m/S 616 mmHg 97%
    05:00 +10°C° 0 mm 0 m/S 616 mmHg 96%
    06:00 +11°C° 0 mm 0 m/S 617 mmHg 94%
    07:00 +11°C° 0 mm 0 m/S 617 mmHg 91%
    08:00 +12°C° 0 mm 0 m/S 618 mmHg 88%
    09:00 +14°C° 0 mm 0 m/S 618 mmHg 80%
    10:00 +16°C° 0 mm 1 m/S 618 mmHg 73%
    11:00 +19°C° 0 mm 1 m/S 619 mmHg 65%
    12:00 +19°C° 0 mm 1 m/S 618 mmHg 66%
    13:00 +17°C° 0 mm 2 m/S 617 mmHg 68%
    14:00 +17°C° 0 mm 2 m/S 616 mmHg 69%
    15:00 +16°C° 0 mm 2 m/S 616 mmHg 76%
    16:00 +15°C° 0 mm 2 m/S 615 mmHg 84%
    17:00 +14°C° 0 mm 1 m/S 615 mmHg 91%
    18:00 +13°C° 0 mm 1 m/S 615 mmHg 92%
    19:00 +13°C° 0 mm 1 m/S 615 mmHg 92%
    20:00 +13°C° 0 mm 1 m/S 616 mmHg 93%
    21:00 +11°C° 0 mm 0 m/S 615 mmHg 93%
    22:00 +11°C° 0 mm 0 m/S 615 mmHg 94%
    23:00 +10°C° 0 mm 0 m/S 615 mmHg 94%
    Mehr zeigen